Date,TemperatureHighF,TemperatureAvgF,TemperatureLowF,DewpointHighF,DewpointAvgF,DewpointLowF,HumidityHigh,HumidityAvg,HumidityLow,PressureMaxIn,PressureMinIn,WindSpeedMaxMPH,WindSpeedAvgMPH,GustSpeedMaxMPH,PrecipitationSumIn
2013-2-1,72.5,56.2,44.0,54.1,45.5,39.3,97,71,37,30.36,30.24,15,4,19,0.00
2013-2-2,77.4,58.6,44.2,60.2,51.8,42.8,98,81,46,30.26,30.17,11,3,15,0.00
2013-2-3,71.1,56.8,46.5,52.6,46.7,39.4,98,73,34,30.32,30.06,14,4,20,0.00
2013-2-4,75.0,64.3,51.9,66.1,60.2,49.4,97,87,71,30.06,29.83,19,5,19,0.00
2013-2-5,84.2,68.0,60.4,69.8,64.6,59.3,99,90,59,29.99,29.87,16,3,16,0.00
2013-2-6,66.3,63.4,59.8,65.4,62.1,58.1,99,96,92,30.03,29.83,32,8,34,0.81
2013-2-7,73.0,62.7,52.0,65.3,59.9,51.2,99,91,76,29.99,29.89,13,2,13,0.00
2013-2-8,70.0,61.6,53.4,61.6,55.2,50.3,98,81,60,30.16,29.99,18,6,20,0.00
2013-2-9,71.0,63.7,55.1,66.8,60.2,53.1,94,88,78,30.12,29.86,27,9,27,0.00
2013-2-10,76.0,66.9,60.9,73.2,64.1,56.8,96,91,76,29.95,29.73,29,8,31,0.06
2013-2-11,63.9,58.1,55.3,59.0,54.5,48.7,96,88,65,30.04,29.94,33,10,33,0.08
2013-2-12,71.0,60.9,56.3,68.9,58.7,53.0,99,93,84,29.99,29.78,23,6,23,0.01
2013-2-13,63.5,52.7,41.9,53.1,44.5,39.5,92,75,50,30.11,29.98,16,6,22,0.05
2013-2-14,69.0,50.6,35.9,49.6,41.5,34.6,98,75,34,30.17,30.05,12,3,12,0.00
2013-2-15,70.2,54.2,38.3,54.6,43.7,37.0,98,71,42,30.31,30.09,26,5,26,0.00
2013-2-16,65.0,50.8,37.4,40.7,33.2,26.9,89,54,27,30.44,30.26,20,5,20,0.00
2013-2-17,73.7,56.7,37.4,55.2,45.8,35.8,97,71,38,30.27,30.06,19,7,25,0.00
2013-2-18,74.7,67.6,56.0,65.9,61.7,53.9,94,82,69,30.08,29.85,27,12,36,0.24
2013-2-19,65.1,57.1,50.7,54.5,46.3,41.4,96,69,44,30.24,30.07,20,7,23,0.05
2013-2-20,64.8,59.3,52.4,63.2,54.0,42.8,95,83,57,30.13,29.79,34,12,34,0.08
2013-2-21,76.5,68.7,60.2,72.4,65.1,53.8,97,89,66,29.84,29.67,30,9,30,0.10
2013-2-22,69.1,62.4,56.9,56.9,52.2,46.0,88,70,50,29.97,29.82,18,8,27,0.00
2013-2-23,70.9,58.4,48.7,56.3,51.0,46.2,94,77,59,30.00,29.88,20,4,20,0.00
2013-2-24,66.6,57.7,44.8,60.6,54.4,43.5,98,89,77,29.94,29.66,19,8,22,0.00
2013-2-25,79.2,64.6,49.1,69.6,48.8,26.5,99,65,17,29.78,29.52,28,9,37,0.00
2013-2-26,67.4,54.4,44.3,42.9,38.0,34.3,77,56,34,29.93,29.78,22,8,30,0.00
2013-2-27,77.2,56.8,40.0,57.3,42.1,32.2,97,62,30,30.16,29.90,21,6,29,0.00
2013-2-28,58.7,48.5,39.6,38.3,32.4,28.8,80,55,33,30.27,30.15,17,6,23,0.00